Flag for Germany

Past Weather in Hürth, North Rhine-Westphalia, Germany — Yesterday and Last 2 Weeks

Now
72 °F

Scattered clouds.


Feels Like: 76 °F
Forecast: 78 / 47 °F
Wind: 5 mph from West

Location: Noervenich
Current Time: Sep 20, 2020 at 8:59:34 pm
Latest Report: Sep 20, 2020 at 7:20 pm
Visibility: N/A
Pressure29.98 "Hg
Humidity: 31%
Dew Point: 39 °F
Location of HürthLocation

Past Weather in Hürth — Graph

°F

Hürth Temperature Yesterday

Maximum temperature yesterday: 79 °F (at 3:20 pm)
Minimum temperature yesterday: 52 °F (at 3:20 am)
Average temperature yesterday: 65 °F

High & Low Weather Summary for the Past Weeks

 TemperatureHumidityPressure
High91 °F (Sep 15, 3:20 pm)100% (Sep 9, 2:20 am)30.33 "Hg (Sep 9, 2:20 am)
Low45 °F (Sep 7, 6:20 am)21% (Sep 15, 3:20 pm)29.98 "Hg (Sep 19, 7:20 pm)
Average64 °F61%30.16 "Hg
* Reported Sep 5 7:20 pm — Sep 20 7:20 pm, Hürth. Weather by CustomWeather, © 2020

Note: Actual official high and low records may vary slightly from our data, if they occured in-between our weather recording intervals... More about our weather records

Hürth Weather History for the Previous 24 Hours

Scroll right to see more
 ConditionsComfort  
Time TempWeatherWind HumidityBarometerVisibility
7:20 pm
Sun, Sep 20
72 °FScattered clouds.5 mph31%29.98 "HgN/A
6:20 pm75 °FScattered clouds.7 mph29%29.98 "HgN/A
5:20 pm77 °FPartly sunny.8 mph28%29.98 "HgN/A
4:20 pm77 °FPartly sunny.6 mph24%29.98 "HgN/A
3:20 pm77 °FPartly sunny.5 mph22%29.98 "HgN/A
2:20 pm75 °FPartly sunny.3 mph24%30.01 "HgN/A
1:20 pm75 °FScattered clouds.5 mph27%30.01 "HgN/A
12:20 pm72 °FPartly sunny.3 mph33%30.01 "HgN/A
11:20 am68 °FPartly sunny.6 mph40%30.04 "HgN/A
10:20 am63 °FScattered clouds.3 mph49%30.04 "HgN/A
9:20 am57 °FScattered clouds.3 mph59%30.01 "HgN/A
8:20 am52 °FPartly sunny.2 mph72%30.01 "HgN/A
7:20 am50 °FPartly sunny.6 mph76%30.01 "HgN/A
6:20 am52 °FPassing clouds.6 mph72%30.01 "HgN/A
5:20 am50 °FPassing clouds.2 mph71%30.01 "HgN/A
4:20 am52 °FPassing clouds.3 mph67%30.01 "HgN/A
3:20 am54 °FPassing clouds.3 mph63%30.01 "HgN/A
2:20 am55 °FPassing clouds.3 mph59%30.01 "HgN/A
1:20 am59 °FPassing clouds.3 mph51%30.01 "HgN/A
12:20 am61 °FPassing clouds.3 mph48%30.01 "HgN/A
11:20 pm
Sat, Sep 19
64 °FPassing clouds.3 mph40%30.01 "HgN/A
10:20 pm64 °FPassing clouds.2 mph43%30.01 "HgN/A
9:20 pm66 °FPassing clouds.2 mph40%30.01 "HgN/A
8:20 pm68 °FPassing clouds.3 mph40%30.01 "HgN/A
Weather by CustomWeather, © 2020

See weather overview